Wind_Speed
27 25 26 29 35 38 41 44 46 40 28 28 31 30 29 20 13 11 8 10 17 21 22 24 27 26 28 49 45 49 32 21 19 21 42 30 38 46 43 44 48 37 39 38
26 22 26 29 34 36 40 42 43 35 29 29 33 31 28 21 14 10 7 6 11 16 19 20 20 33 27 22 41 46 48 40 19 23 20 35 38 38 47 39 30 41 40 32
24 20 25 28 33 35 39 41 42 41 32 27 29 30 28 25 16 11 8 8 14 11 14 16 16 16 21 21 21 40 40 30 31 18 26 26 40 40 38 41 30 28 32 28
20 19 23 28 30 33 36 40 42 42 41 28 24 27 26 24 20 12 11 9 10 6 8 12 13 14 17 15 15 19 22 29 36 41 28 25 25 36 35 30 26 29 36 35
19 15 21 25 27 31 35 39 41 42 42 34 22 22 24 22 19 18 13 12 10 7 7 6 7 9 13 10 9 11 18 22 23 21 26 24 24 29 33 35 30 20 27 25
17 13 18 22 25 30 32 36 39 41 43 43 35 18 22 23 21 17 15 12 10 8 7 8 4 6 8 10 10 10 7 21 19 16 18 19 17 19 21 25 22 19 19 33
16 12 15 19 23 27 32 34 37 39 43 43 40 26 20 22 22 19 17 15 12 10 8 7 6 8 6 7 11 12 13 12 14 15 19 18 17 16 16 15 14 13 16 18
13 10 12 16 21 24 26 30 35 37 40 41 42 35 23 19 21 19 16 15 15 14 12 10 7 9 11 9 9 12 14 16 17 19 20 21 24 25 25 22 22 22 20 20
11 8 10 14 19 22 25 28 31 34 37 39 40 38 31 16 17 18 18 16 14 15 16 17 14 6 7 9 9 9 11 15 18 20 22 23 25 26 27 27 27 27 27 26
12 7 9 12 16 20 22 26 28 32 35 36 36 38 36 21 14 15 12 13 14 15 14 14 15 13 6 5 7 10 12 12 16 19 21 21 23 26 27 27 29 30 30 30
14 6 9 10 14 16 18 21 25 28 31 34 36 36 35 29 13 14 10 12 12 13 15 15 15 16 14 8 6 7 8 11 14 15 18 21 22 22 24 28 29 28 29 28
12 6 7 9 11 14 16 18 21 25 28 30 33 35 35 31 20 11 13 12 14 14 14 14 14 15 16 15 9 4 7 8 10 11 14 17 19 21 22 23 23 26 28 28
13 7 6 8 10 13 14 16 18 21 24 27 31 33 35 35 27 14 11 13 14 14 16 16 16 15 17 17 16 14 7 4 7 10 12 12 13 15 17 19 22 25 27 29
16 10 7 6 9 11 13 15 16 18 20 24 26 30 34 35 35 24 15 14 15 13 14 15 15 18 18 16 16 14 11 11 7 5 8 9 10 11 12 13 14 15 16 19
16 14 10 4 7 11 14 14 15 17 19 20 23 26 30 34 35 33 26 15 12 12 13 14 14 14 14 12 13 13 14 14 10 8 4 3 8 10 12 13 15 16 18 20
18 14 15 6 4 7 12 14 15 16 16 17 20 22 26 30 32 33 31 23 8 6 10 13 16 18 19 19 18 15 13 11 10 10 8 7 5 6 6 6 9 11 14 15
20 15 14 12 5 8 11 16 16 16 16 15 16 19 22 25 29 30 29 24 15 4 6 12 17 20 20 21 20 18 17 13 12 10 9 9 7 7 6 6 7 7 7 13
22 20 14 12 10 8 12 17 17 18 16 14 14 16 17 20 24 27 27 24 17 10 8 13 16 14 17 22 18 15 9 6 8 8 7 5 7 6 1 3 4 2 5 3
24 25 19 17 15 11 12 20 18 17 17 15 15 15 16 16 18 22 23 22 19 16 13 11 13 15 15 20 20 17 9 9 6 4 4 9 6 4 2 2 2 1 4 3
26 26 26 21 18 14 15 19 25 19 17 17 15 15 15 15 14 16 19 18 16 15 14 12 14 17 17 16 22 17 15 11 9 10 8 7 5 6 6 3 2 2 3 4
26 29 28 25 23 18 19 18 23 21 19 18 18 18 16 15 15 13 13 17 15 13 15 13 13 14 15 16 16 18 18 17 15 12 10 8 6 7 5 5 7 12 15 15
28 31 28 27 24 23 21 22 23 21 24 21 22 21 19 17 16 15 13 13 15 13 10 12 13 13 10 11 13 12 13 15 15 15 17 15 15 14 13 14 14 14 14 15
30 30 31 28 24 25 27 30 26 26 26 23 24 25 23 22 20 18 15 13 14 15 13 10 8 9 8 6 6 8 11 11 12 12 11 11 11 10 11 11 11 12 14 15
34 33 31 27 27 32 32 31 32 31 29 29 30 26 25 24 23 22 20 17 15 15 17 14 9 7 7 6 4 2 1 3 5 7 9 9 10 9 9 9 9 9 9 11
38 38 31 30 31 40 35 31 37 39 34 32 30 27 24 23 23 24 25 25 22 20 18 17 16 13 11 9 7 5 4 5 7 9 8 9 9 10 9 9 8 8 7 7
39 34 32 30 31 34 37 34 38 41 35 36 33 30 29 29 31 32 29 30 28 27 26 23 22 22 19 18 16 13 11 11 11 11 10 9 8 7 5 4 3 2 2 2
Wind_Direction
337 344 354 355 357 0 1 4 6 6 1 360 355 357 350 355 359 337 322 286 252 247 253 235 240 244 253 237 240 236 245 247 273 266 231 226 222 230 226 233 236 233 236 242
332 346 355 359 358 3 4 8 9 7 359 357 0 2 356 355 355 343 331 309 278 255 258 249 252 245 257 281 251 244 243 254 252 242 236 223 230 227 220 227 200 229 235 242
331 355 358 360 358 4 4 8 11 7 2 351 358 2 1 359 3 347 323 284 313 253 254 250 248 253 266 276 285 248 248 255 253 265 253 243 211 219 224 227 210 198 227 242
329 355 359 2 0 3 3 7 12 11 7 356 355 4 7 359 0 352 342 325 312 313 257 249 248 243 262 270 289 289 267 268 261 262 264 255 237 222 209 195 219 227 232 235
333 354 5 360 1 3 7 5 11 14 12 7 355 356 7 10 0 359 350 338 336 306 292 257 253 249 253 255 273 266 274 262 254 259 257 259 257 241 238 220 217 242 244 234
327 354 2 359 2 4 7 6 9 14 14 12 11 353 358 7 9 8 354 350 343 334 317 293 283 261 244 240 249 258 260 269 275 265 260 264 269 282 276 262 271 253 252 250
324 350 0 358 4 5 3 7 7 12 14 14 13 6 351 0 4 3 2 358 353 343 325 310 279 261 241 231 228 224 218 242 252 261 257 250 252 254 255 262 270 270 271 277
335 346 354 0 358 7 5 5 7 12 16 13 12 9 360 353 3 1 357 357 356 354 345 338 314 277 256 237 231 231 225 223 235 234 235 241 247 252 262 260 259 259 257 260
319 338 356 359 360 359 3 6 6 9 15 15 12 10 4 352 355 3 6 10 22 26 16 8 359 335 280 266 245 244 241 234 233 236 237 235 236 236 243 249 247 246 245 248
308 336 354 356 359 355 0 1 8 7 11 15 13 11 3 358 350 1 14 26 25 24 23 18 20 14 345 291 262 242 242 246 240 238 241 243 242 240 238 239 240 241 244 243
297 329 351 349 355 352 356 1 6 7 8 9 13 12 7 0 351 354 358 6 11 15 22 30 24 21 16 345 294 281 253 243 245 249 247 246 243 241 241 240 241 240 240 240
299 321 351 341 345 347 351 355 3 2 3 8 10 11 10 6 356 352 352 343 355 0 4 10 9 7 10 22 26 326 266 254 244 243 245 245 243 243 241 238 241 244 244 245
299 310 325 336 335 341 346 350 358 360 1 4 6 9 8 10 5 342 334 337 334 340 344 344 351 357 6 4 3 13 20 287 255 243 241 242 240 236 235 236 239 243 245 247
299 297 296 327 321 336 342 350 348 353 358 360 3 7 6 9 10 5 335 315 324 330 329 336 337 336 339 341 345 356 357 8 13 281 251 242 235 235 238 238 231 229 239 244
290 292 284 309 326 328 337 341 344 343 351 354 358 4 6 7 10 13 10 340 310 318 326 336 341 343 335 333 333 330 328 329 339 349 348 257 242 243 244 241 243 244 242 242
282 282 290 298 331 330 330 334 335 338 338 348 352 356 4 8 10 14 19 9 348 309 330 340 340 338 333 325 320 307 302 290 302 311 310 312 290 282 259 249 253 256 259 257
274 268 274 286 291 316 330 330 328 329 334 337 344 348 358 6 7 13 23 26 22 51 353 345 341 337 342 337 324 312 293 275 261 266 277 287 282 253 235 257 269 277 292 276
270 268 265 276 278 301 321 331 327 321 324 327 330 341 349 357 6 7 19 31 41 46 19 354 347 355 353 5 360 349 322 261 227 229 231 224 189 173 142 126 121 7 5 354
265 265 267 274 278 287 314 329 326 319 315 321 319 328 336 345 358 3 7 21 31 41 33 24 16 10 8 19 22 24 55 96 130 153 162 180 179 190 132 145 294 206 135 351
261 261 264 266 270 279 300 317 322 321 312 309 313 315 318 328 338 355 358 7 19 26 26 20 21 30 23 29 35 40 57 72 102 99 95 116 143 123 108 56 82 76 74 22
255 259 263 267 266 272 286 303 307 313 309 307 308 312 306 307 317 328 345 349 358 12 13 19 13 15 28 40 50 49 64 68 72 79 89 100 100 98 95 120 119 99 91 93
250 254 257 260 264 272 283 294 299 301 303 307 300 300 296 291 291 302 311 328 337 337 9 6 359 4 21 39 51 59 62 73 77 90 95 97 98 96 98 106 104 99 91 92
252 257 257 254 256 264 279 289 294 297 302 305 295 293 291 289 279 281 289 300 309 317 314 330 346 356 20 21 33 77 86 87 91 98 102 109 112 108 107 107 105 102 100 96
253 251 252 253 255 267 272 280 290 293 298 297 296 298 289 289 279 273 277 278 282 289 298 303 295 305 327 344 10 350 127 128 134 133 133 133 134 132 126 122 115 107 98 94
253 253 256 253 254 262 266 269 282 290 297 297 299 300 287 279 275 269 267 267 268 270 272 278 283 271 269 281 290 264 235 199 169 162 157 153 146 139 132 123 113 103 94 86
253 257 253 252 250 252 259 272 280 286 296 299 300 295 284 275 275 278 274 269 267 266 268 266 266 262 261 261 268 262 249 240 235 228 221 202 197 196 190 190 198 202 209 231
Height
5813 5808 5802 5797 5790 5783 5776 5768 5758 5748 5743 5737 5730 5723 5717 5710 5706 5702 5700 5700 5700 5701 5703 5706 5709 5711 5712 5714 5719 5721 5725 5729 5731 5736 5742 5743 5749 5754 5760 5761 5763 5767 5771 5775
5812 5805 5799 5794 5787 5781 5775 5767 5758 5748 5741 5736 5729 5723 5716 5711 5707 5703 5701 5699 5699 5698 5699 5701 5704 5708 5711 5711 5714 5718 5721 5727 5730 5732 5735 5739 5744 5748 5752 5755 5756 5763 5766 5769
5809 5802 5797 5793 5787 5782 5775 5768 5759 5749 5741 5735 5729 5723 5717 5711 5708 5704 5702 5699 5697 5696 5698 5699 5701 5704 5707 5709 5711 5715 5718 5722 5727 5729 5731 5734 5739 5744 5748 5750 5753 5753 5759 5763
5806 5800 5796 5792 5787 5782 5776 5768 5759 5750 5740 5735 5730 5725 5718 5712 5708 5705 5703 5700 5698 5696 5696 5697 5699 5702 5705 5708 5710 5712 5717 5721 5725 5728 5729 5730 5734 5738 5742 5744 5748 5751 5755 5760
5804 5797 5793 5790 5787 5781 5775 5768 5760 5750 5742 5734 5729 5726 5721 5716 5710 5706 5703 5700 5698 5696 5696 5695 5696 5698 5701 5704 5708 5709 5711 5717 5721 5722 5725 5727 5729 5732 5735 5739 5742 5745 5750 5753
5800 5794 5792 5789 5785 5780 5775 5769 5761 5752 5743 5736 5728 5726 5721 5716 5712 5707 5704 5700 5698 5696 5695 5694 5694 5695 5697 5699 5701 5705 5707 5712 5716 5718 5721 5724 5726 5727 5729 5733 5735 5740 5743 5747
5799 5793 5790 5787 5783 5778 5774 5770 5763 5755 5744 5737 5729 5724 5720 5716 5712 5708 5704 5701 5698 5696 5694 5693 5693 5694 5693 5696 5698 5700 5703 5707 5711 5714 5718 5720 5723 5725 5728 5729 5732 5734 5737 5741
5796 5792 5788 5785 5782 5778 5774 5770 5764 5756 5747 5740 5731 5725 5720 5716 5712 5708 5704 5701 5698 5696 5694 5692 5691 5690 5691 5691 5693 5696 5698 5701 5704 5708 5712 5713 5718 5722 5724 5725 5727 5729 5730 5733
5792 5789 5785 5783 5781 5778 5774 5769 5765 5759 5750 5743 5734 5728 5721 5716 5713 5709 5705 5701 5699 5697 5694 5692 5690 5689 5687 5687 5688 5690 5692 5696 5698 5701 5704 5707 5711 5713 5716 5718 5720 5722 5723 5725
5790 5786 5783 5782 5780 5777 5772 5770 5764 5759 5752 5745 5738 5730 5722 5716 5713 5710 5708 5705 5702 5699 5696 5693 5691 5688 5686 5685 5685 5686 5687 5688 5691 5695 5697 5699 5703 5705 5708 5710 5713 5714 5717 5718
5788 5783 5782 5779 5777 5775 5773 5768 5764 5760 5753 5746 5740 5733 5725 5718 5714 5711 5709 5707 5704 5701 5698 5695 5692 5689 5686 5684 5683 5683 5683 5684 5685 5686 5690 5693 5696 5699 5702 5704 5706 5708 5710 5711
5784 5781 5777 5777 5774 5773 5771 5767 5764 5759 5755 5748 5742 5737 5728 5720 5715 5711 5710 5707 5704 5702 5699 5696 5693 5691 5688 5686 5683 5681 5680 5681 5682 5683 5684 5687 5690 5692 5693 5696 5698 5700 5703 5704
5781 5779 5775 5773 5773 5771 5768 5766 5762 5759 5755 5749 5743 5739 5730 5723 5716 5711 5708 5707 5704 5702 5699 5697 5694 5691 5688 5686 5684 5682 5681 5679 5679 5679 5680 5681 5683 5685 5687 5689 5691 5693 5695 5697
5777 5775 5772 5769 5769 5767 5766 5764 5761 5758 5755 5751 5745 5739 5733 5725 5717 5710 5707 5705 5703 5701 5699 5697 5694 5691 5688 5686 5684 5682 5681 5680 5678 5677 5677 5679 5679 5681 5682 5683 5686 5688 5690 5691
5772 5771 5769 5765 5764 5764 5763 5762 5760 5757 5754 5751 5746 5740 5735 5728 5720 5711 5705 5702 5701 5701 5699 5697 5694 5691 5689 5686 5684 5682 5679 5678 5678 5678 5678 5677 5677 5678 5679 5680 5682 5683 5684 5685
5767 5766 5767 5760 5760 5760 5760 5759 5757 5754 5752 5749 5746 5741 5735 5730 5724 5716 5707 5702 5699 5700 5699 5697 5694 5690 5686 5683 5681 5679 5677 5676 5674 5674 5675 5675 5676 5676 5677 5678 5678 5678 5679 5680
5760 5760 5762 5760 5753 5756 5756 5755 5753 5752 5750 5747 5744 5741 5736 5731 5726 5720 5712 5705 5701 5700 5700 5698 5695 5691 5685 5681 5676 5672 5671 5671 5671 5671 5671 5672 5672 5673 5674 5674 5675 5675 5675 5674
5754 5755 5755 5757 5753 5751 5752 5750 5748 5747 5746 5744 5742 5740 5736 5732 5727 5723 5716 5710 5706 5703 5701 5698 5695 5691 5686 5680 5674 5669 5665 5665 5667 5669 5670 5671 5672 5672 5673 5673 5673 5672 5671 5670
5747 5748 5750 5750 5749 5746 5746 5746 5745 5743 5743 5741 5739 5737 5735 5731 5727 5724 5719 5713 5710 5706 5703 5700 5696 5692 5688 5683 5676 5671 5668 5667 5668 5669 5670 5671 5672 5672 5672 5672 5671 5670 5669 5669
5741 5740 5742 5744 5744 5741 5742 5741 5740 5739 5739 5737 5736 5734 5732 5730 5727 5724 5721 5717 5712 5709 5705 5703 5699 5695 5690 5686 5681 5676 5673 5671 5670 5670 5670 5671 5672 5672 5672 5672 5671 5670 5669 5668
5733 5732 5735 5735 5737 5738 5733 5735 5734 5734 5736 5733 5732 5731 5729 5728 5726 5723 5720 5719 5715 5709 5707 5704 5701 5698 5694 5689 5686 5683 5678 5676 5675 5673 5673 5673 5673 5673 5673 5673 5672 5671 5670 5669
5726 5724 5727 5728 5731 5732 5729 5729 5729 5728 5726 5728 5727 5726 5726 5724 5723 5721 5718 5716 5715 5712 5707 5705 5703 5700 5697 5693 5690 5687 5685 5682 5680 5679 5678 5677 5676 5676 5676 5676 5675 5674 5673 5672
5717 5718 5720 5723 5725 5724 5723 5723 5722 5720 5720 5721 5721 5720 5720 5719 5718 5717 5716 5713 5712 5711 5708 5705 5703 5701 5698 5696 5693 5691 5688 5687 5685 5683 5682 5681 5680 5679 5678 5678 5677 5676 5675 5675
5706 5707 5711 5716 5719 5715 5716 5716 5713 5712 5713 5713 5713 5714 5713 5713 5713 5713 5712 5710 5707 5706 5707 5705 5702 5700 5698 5696 5694 5692 5691 5688 5687 5686 5684 5683 5683 5682 5681 5680 5679 5678 5677 5676
5696 5696 5705 5708 5711 5704 5708 5708 5703 5703 5703 5705 5705 5707 5706 5706 5706 5706 5705 5704 5703 5702 5700 5700 5699 5697 5696 5695 5694 5692 5690 5689 5688 5686 5685 5684 5683 5683 5682 5681 5680 5679 5678 5678
5686 5691 5693 5699 5700 5698 5698 5698 5694 5690 5693 5696 5697 5698 5698 5699 5698 5697 5698 5697 5697 5697 5696 5694 5692 5692 5691 5690 5690 5689 5688 5687 5686 5685 5684 5682 5682 5681 5681 5680 5679 5678 5677 5677